ELEKTRO-L 4

Last updated on Thu Oct 30 2025 00:02:52 GMT+0000 (Coordinated Universal Time)

1 55506U 23016A 25301.43648269 -.00000047 00000+0 00000+0 0 9996 2 55506 0.0627 237.1732 0002847 4.0615 118.7721 1.00273837 10010
UTC large
Height (km)
Speed (km/s)
/
Latitude / Longitude
Inclination (degrees)
Orbital Period (minutes)
Azimuth
Elevation
Range (km)
Doppler Factor

Next 0 passes for location: London (51.5072 / 0.1276)

Sorry there are no passes over London.